Nausori, Fiji

9:41 PM +12 on May 24, 2017 (GMT +1200)
Nausori International

Weather History for NFNA - June, 2013

Change the Weather History Date:

Sunday, June 23, 2013

  Actual Average Record
Temperature  
Mean Temperature 75 °F -  
Max Temperature 80 °F 80 °F - ()
Min Temperature 70 °F 69 °F - ()
Cooling Degree Days 10    
Growing Degree Days 25 (Base 50)    
Moisture  
Dew Point 70 °F    
Average Humidity 82    
Maximum Humidity 100    
Minimum Humidity 61    
Precipitation  
Precipitation 0.00 in 0.19 in - ()
Sea Level Pressure  
Sea Level Pressure 30.02 in    
Wind  
Wind Speed 1 mph ()    
Max Wind Speed 8 mph    
Max Gust Speed -    
Visibility 7.2 miles    
Events      
T = Trace of Precipitation, MM = Missing Value Source: Averaged Metar Reports

Daily Weather History Graph

Daily Weather History Graph

Search for Another Location

Airport or City:

Trip Planner

Search our weather history database for the weather conditions in past years. The results will help you decide how hot, cold, wet, or windy it might be!

Date:

Astronomy

Jun. 23, 2013 Rise Set
Actual Time 6:36 AM +12 5:39 PM +12
Civil Twilight 6:12 AM +12 6:03 PM +12
Nautical Twilight 5:45 AM +12 6:30 PM +12
Astronomical Twilight 5:18 AM +12 6:57 PM +12
Moon 5:26 PM +12 (6/23) 5:49 AM +12 (6/23)
Length of Visible Light 11h 50m
Length of Day
11h 02m
Full, 100% of the Moon is Illuminated
Jun 23
Full
Jun 23
Full
Jun 30
Last Quarter
Jul 8
New
Jul 16
First Quarter

Hourly Weather History & Observations

Time (+12) Temp. Heat Index Dew Point Humidity Pressure Visibility Wind Dir Wind Speed Gust Speed Precip Events Conditions
12:00 AM 72 °F - 70 °F 93% 30.04 in 12 mi Calm Calm - -   Partly Cloudy
12:00 AM 73.4 °F - 69.8 °F 88% 30.04 in 6.2 mi Calm Calm - N/A   Mostly Cloudy
1:00 AM 73.4 °F - 69.8 °F 88% 30.01 in 6.2 mi Calm Calm - N/A   Mostly Cloudy
2:00 AM 71.6 °F - 69.8 °F 94% 30.01 in 6.2 mi Calm Calm - N/A   Mostly Cloudy
3:00 AM 72 °F - 71 °F 97% 29.99 in 12 mi Calm Calm - -   Partly Cloudy
3:00 AM 73.4 °F - 71.6 °F 94% 29.98 in 6.2 mi Calm Calm - N/A   Mostly Cloudy
4:00 AM 73.4 °F - 71.6 °F 94% 29.98 in 6.2 mi Calm Calm - N/A   Mostly Cloudy
5:00 AM 71.6 °F - 71.6 °F 100% 29.98 in 6.2 mi Calm Calm - N/A   Mostly Cloudy
6:00 AM 72 °F - 71 °F 97% 29.99 in 12 mi Calm Calm - -   Partly Cloudy
6:00 AM 71.6 °F - 71.6 °F 100% 29.98 in 6.2 mi Calm Calm - N/A   Mostly Cloudy
7:00 AM 73.4 °F - 69.8 °F 88% 29.98 in 6.2 mi Calm Calm - N/A   Mostly Cloudy
8:00 AM 73.4 °F - 71.6 °F 94% 30.01 in 6.2 mi Calm Calm - N/A   Mostly Cloudy
9:00 AM 77 °F - 71 °F 76% 30.06 in 31 mi Calm Calm - -   Partly Cloudy
9:00 AM 77.0 °F - 71.6 °F 83% 30.04 in 6.2 mi Calm Calm - N/A   Mostly Cloudy
10:00 AM 77.0 °F - 71.6 °F 83% 30.06 in 6.2 mi Calm Calm - N/A   Mostly Cloudy
11:00 AM 77.0 °F - 71.6 °F 83% 30.06 in 6.2 mi Calm Calm - N/A   Mostly Cloudy
12:00 PM 80 °F - 71 °F 66% 30.05 in 31 mi East 5.8 mph - -   Partly Cloudy
12:00 PM 78.8 °F - 68.0 °F 69% 30.04 in 6.2 mi East 5.8 mph - N/A   Mostly Cloudy
1:00 PM 80.6 °F 83.9 °F 69.8 °F 70% 30.04 in 6.2 mi East 5.8 mph - N/A   Scattered Clouds
2:00 PM 78.8 °F - 68.0 °F 69% 30.01 in 6.2 mi ESE 8.1 mph - N/A   Mostly Cloudy
3:00 PM 77 °F - 71 °F 77% 30.00 in 31 mi East 4.6 mph - -   Partly Cloudy
3:00 PM 77.0 °F - 71.6 °F 83% 29.98 in 6.2 mi East 4.6 mph - N/A   Mostly Cloudy
4:00 PM 77.0 °F - 71.6 °F 83% 29.98 in 6.2 mi ESE 8.1 mph - N/A   Mostly Cloudy
5:00 PM 75.2 °F - 69.8 °F 83% 29.98 in 6.2 mi ESE 6.9 mph - N/A   Mostly Cloudy
6:00 PM 75 °F - 64 °F 61% 30.01 in 12 mi East 2.3 mph - -   Partly Cloudy
6:00 PM 75.2 °F - 64.4 °F 69% 30.01 in 6.2 mi East 3.5 mph - N/A   Mostly Cloudy
7:00 PM 75.2 °F - 64.4 °F 69% 30.01 in 6.2 mi ESE 8.1 mph - N/A   Scattered Clouds
8:00 PM 75.2 °F - 68.0 °F 78% 30.04 in 6.2 mi SSE 5.8 mph - N/A   Mostly Cloudy
9:00 PM 75 °F - 67 °F 70% 30.06 in 12 mi Calm Calm - -   Partly Cloudy
9:00 PM 75.2 °F - 68.0 °F 78% 30.06 in 6.2 mi Calm Calm - N/A   Mostly Cloudy
10:00 PM 75.2 °F - 68.0 °F 78% 30.06 in 6.2 mi Calm Calm - N/A   Scattered Clouds
11:00 PM 75.2 °F - 68.0 °F 78% 30.06 in 6.2 mi Calm Calm - N/A   Mostly Cloudy